sat.trackr.live / text

‹ back to catalog

STARLINK-5407

NORAD 54858 · 2022-177AQ

PAYLOAD ACTIVE UNKNOWN

§ Identity

Operator
Country
US
Launch date
2022-12-28
Launch site
AFETR
Launch vehicle
Mass (kg)
RCS (m²)

Purposes: comms

External: N2YO · Heavens-Above · Gunter

§ Orbital elements

Epoch: 2026-05-25T03:10:41.507904Z

Period
94.27 min
Inclination
43.0062°
Eccentricity
0.0001350
Mean motion
15.27581139 rev/d
Perigee alt
482.1 km
Apogee alt
484.0 km
Semi-major
6,861.2 km
B*
4.4684e-5
RAAN
49.6944°
Arg perigee
271.1307°
Mean anomaly
88.9390°
Rev number
18,878

§ Raw data

STARLINK-54071 54858U 22177AQ  26145.13242486  .00000968  00000+0  44684-4 0  99992 54858  43.0062  49.6944 0001350 271.1307  88.9390 15.27581139188784

JSON: /api/v1/satellites/54858 · /tle

For live sub-satellite position, see the globe view (requires WebGL).

§ Visibility from observer

Set your observer location to see the next 7 days of passes ≥ 10°. The values pass through the URL so the page stays shareable.

No JS? Fill the form by hand. The geolocation button needs JavaScript.